Location: Bartlow
(52.0833°N, 0.3167°E)
Time: 04:40:10
(UTC+00:00)

MSX - Pass Details

Date: 26 September 2023
Orbit: 895 x 905 km, 98.9° (Epoch: 29 November)

Event Time Altitude Azimuth Distance (km) Brightness Sun altitude
Rises 01:49:27 0° 17° (NNE) 3,525 7.9 -33.2°
Reaches altitude 10° 01:51:55 10° 22° (NNE) 2,580 7.0 -33.0°
Enters shadow 01:56:56 55° 73° (ENE) 1,070 4.3 -32.5°
